GW3387 Weather Reports


time (UTC)temp
C
wind
direction
speed
KPH
gust
KPH
rain 1hr
cm
rain 24hr
cm
rain mn
cm
humidity
%
barometer
mb
20260505060026 16 277 1.6 3.2 0.00 0.00 0.00 100 1012.2
20260505054520 15 277 0.0 3.2 0.00 0.00 0.00 100 1012.2
20260505053016 13 277 0.0 0.0 0.00 0.00 0.00 100 1012.2
20260505051505 12 277 0.0 0.0 0.00 0.00 0.00 100 1012.3
20260505041601 7 360 0.0 0.0 0.00 0.00 0.00 100 1012.2
20260505040053 5 360 0.0 0.0 0.00 0.00 0.00 100 1012.1
20260505034540 4 360 0.0 0.0 0.00 0.00 0.00 100 1012.1
20260505033041 3 277 0.0 0.0 0.00 0.00 0.00 100 1012.1
20260505031543 3 277 0.0 0.0 0.00 0.00 0.00 100 1012.0
20260505030037 3 277 0.0 0.0 0.00 0.00 0.00 100 1011.9
20260505024529 3 277 0.0 0.0 0.00 0.00 0.00 100 1011.8
20260505023038 4 277 0.0 0.0 0.00 0.00 0.00 100 1011.8
20260505021528 3 277 0.0 0.0 0.00 0.00 0.00 100 1011.8
20260505020026 3 277 0.0 0.0 0.00 0.00 0.00 100 1011.8
20260505014522 4 277 0.0 0.0 0.00 0.00 0.00 100 1011.8
20260505013024 4 277 0.0 0.0 0.00 0.00 0.00 100 1011.8
20260505011527 5 277 0.0 0.0 0.00 0.00 0.00 100 1011.7
20260505010016 5 277 0.0 0.0 0.00 0.00 0.00 100 1011.6
20260505004524 5 277 0.0 0.0 0.00 0.00 0.00 100 1011.7
20260505003012 5 277 0.0 0.0 0.00 0.00 0.00 100 1011.5
20260505001511 5 277 0.0 0.0 0.00 0.00 0.00 100 1011.7
20260505000013 6 277 0.0 0.0 0.00 0.00 0.00 100 1011.8
20260504234508 6 277 0.0 0.0 0.00 0.00 0.00 100 1011.7
20260504233007 6 277 0.0 0.0 0.00 0.00 0.00 100 1011.6
20260504231504 6 277 0.0 0.0 0.00 0.00 0.00 100 1011.6
20260504230002 7 360 0.0 0.0 0.00 0.00 0.00 100 1011.7
20260504224609 7 360 0.0 1.6 0.00 0.00 0.00 100 1011.7
20260504223056 7 360 0.0 3.2 0.00 0.00 0.00 100 1011.6
20260504221555 7 360 0.0 0.0 0.00 0.00 0.00 100 1011.5
20260504220051 8 360 0.0 1.6 0.00 0.00 0.00 100 1011.6
20260504214547 8 360 0.0 0.0 0.00 0.00 0.00 100 1011.7
20260504213101 9 360 0.0 0.0 0.00 0.00 0.00 100 1011.8
20260504211542 9 360 0.0 0.0 0.00 0.00 0.00 100 1011.7
20260504210040 9 360 0.0 0.0 0.00 0.00 0.00 100 1011.7
20260504204537 10 360 0.0 0.0 0.00 0.00 0.00 100 1011.7
20260504203036 10 360 0.0 0.0 0.00 0.00 0.00 100 1011.6
20260504201534 11 360 0.0 0.0 0.00 0.00 0.00 100 1011.7
20260504200030 11 360 0.0 0.0 0.00 0.00 0.00 100 1011.6
20260504194527 11 360 0.0 0.0 0.00 0.00 0.00 100 1011.5
20260504193024 12 360 0.0 0.0 0.00 0.00 0.00 100 1011.5
20260504191520 13 360 0.0 1.6 0.00 0.00 0.00 100 1011.5
20260504190016 13 360 0.0 0.0 0.00 0.00 0.00 100 1011.5
20260504184514 14 360 0.0 0.0 0.00 0.00 0.00 100 1011.6
20260504183007 15 360 0.0 0.0 0.00 0.00 0.00 100 1011.5
20260504181502 16 360 0.0 0.0 0.00 0.00 0.00 100 1011.4
20260504180058 17 360 0.0 0.0 0.00 0.00 0.00 100 1011.2
20260504174602 18 360 0.0 0.0 0.00 0.00 0.00 100 1011.1
20260504173053 20 360 0.0 0.0 0.00 0.00 0.00 100 1011.0
20260504171545 21 360 0.0 0.0 0.00 0.00 0.00 100 1011.0
20260504130105 26 273 6.4 6.4 0.00 0.00 0.00 91 1012.2
20260504110119 25 346 4.8 14.5 0.00 0.00 0.00 91 1013.1
20260504081526 23 346 3.2 9.7 0.00 0.00 0.00 98 1014.3